Date String (YYYY-MM-DD hh:mm:ss) UTC,Instrument flags,Ambient pressure (hPa),Sample flow (lpm),Bypass flow (lpm),Sample temperature (°C),Ambient temperature (°C),ASC tube jacket temperature (°C),LED temperature (°C),Box temperature (°C),Sample RH (%),Span deviation,Mass concentration (μg/m³),Mass concentration (μg/m³),Mass concentration (μg/m³)
DateTimeUTC,F1_M11,P_M11,Q1_M11,Q2_M11,T1_M11,T2_M11,T3_M11,T4_M11,T5_M11,U1_M11,ZSPAN_M11,X0_M11,X2_M11,X1_M11
2022-07-03 05:00:00,,0826.9,5.00,0.00,29.6,28.7,00.0,38.3,31.6,20.8,0000.0,0005.90,0003.01,0002.24
2022-07-03 05:01:00,,0826.9,5.00,0.00,29.7,28.7,00.0,38.3,31.7,20.8,0000.0,0005.07,0002.99,0002.26
2022-07-03 05:02:00,,0826.8,5.00,0.00,29.7,28.0,00.0,38.3,31.5,20.9,0000.0,0005.19,0003.02,0002.28
2022-07-03 05:03:00,,0826.9,5.00,0.00,29.6,27.5,00.0,38.2,31.4,21.0,0000.0,0005.45,0003.07,0002.30
2022-07-03 05:04:00,,0827.1,5.00,0.00,29.6,27.4,00.0,38.3,31.3,21.1,0000.0,0005.48,0003.09,0002.30
2022-07-03 05:05:00,,0826.8,4.99,0.00,29.5,27.4,00.0,38.2,31.2,21.2,0000.0,0005.55,0003.08,0002.32
2022-07-03 05:06:00,,0826.8,5.00,0.00,29.5,27.5,00.0,38.2,31.2,21.2,0000.0,0005.63,0003.12,0002.34
2022-07-03 05:07:00,,0826.8,5.00,0.00,29.4,27.7,00.0,38.2,31.3,21.2,0000.0,0005.71,0003.11,0002.33
2022-07-03 05:08:00,,0826.8,5.00,0.00,29.4,27.8,00.0,38.2,31.3,21.3,0000.0,0005.54,0003.12,0002.32
2022-07-03 05:09:00,,0826.7,5.00,0.00,29.4,27.9,00.0,38.2,31.3,21.3,0000.0,0005.46,0003.12,0002.32
2022-07-03 05:10:00,,0826.7,4.99,0.00,29.5,28.1,00.0,38.2,31.4,21.4,0000.0,0005.52,0003.14,0002.33
2022-07-03 05:11:00,,0826.7,5.00,0.00,29.5,28.2,00.0,38.2,31.4,21.2,0000.0,0005.63,0003.15,0002.34
2022-07-03 05:12:00,,0826.7,5.00,0.00,29.5,28.3,00.0,38.2,31.4,21.3,0000.0,0005.79,0003.18,0002.34
2022-07-03 05:13:00,,0826.7,5.00,0.00,29.5,28.3,00.0,38.2,31.5,21.3,0000.0,0005.84,0003.19,0002.33
2022-07-03 05:14:00,,0826.7,4.99,0.00,29.5,28.4,00.0,38.3,31.5,21.2,0000.0,0005.68,0003.18,0002.33
2022-07-03 05:15:00,,0826.7,4.99,0.00,29.6,28.5,00.0,38.3,31.5,21.1,0000.0,0006.28,0003.20,0002.33
2022-07-03 05:16:00,,0826.7,4.99,0.00,29.6,28.5,00.0,38.3,31.5,21.3,0000.0,0006.46,0003.20,0002.32
2022-07-03 05:17:00,,0826.7,5.00,0.00,29.6,28.6,00.0,38.3,31.6,21.1,0000.0,0006.35,0003.18,0002.32
2022-07-03 05:18:00,,0826.7,5.00,0.00,29.7,28.7,00.0,38.3,31.6,21.2,0000.0,0006.17,0003.18,0002.34
2022-07-03 05:19:00,,0826.7,4.99,0.00,29.7,28.7,00.0,38.4,31.7,21.2,0000.0,0005.96,0003.16,0002.34
2022-07-03 05:20:00,,0826.7,5.00,0.00,29.7,28.7,00.0,38.4,31.7,21.2,0000.0,0006.03,0003.18,0002.35
2022-07-03 05:21:00,,0826.7,5.00,0.00,29.7,28.1,00.0,38.3,31.6,21.2,0000.0,0006.05,0003.19,0002.35
2022-07-03 05:22:00,,0826.6,5.01,0.00,29.7,27.5,00.0,38.3,31.5,21.3,0000.0,0005.96,0003.19,0002.35
2022-07-03 05:23:00,,0826.7,4.99,0.00,29.6,27.4,00.0,38.3,31.4,21.4,0000.0,0005.68,0003.15,0002.35
2022-07-03 05:24:00,,0826.7,5.00,0.00,29.5,27.4,00.0,38.3,31.3,21.6,0000.0,0005.69,0003.14,0002.36
2022-07-03 05:25:00,,0826.7,5.00,0.00,29.5,27.5,00.0,38.3,31.3,21.7,0000.0,0005.81,0003.14,0002.37
2022-07-03 05:26:00,,0826.6,5.00,0.00,29.5,27.6,00.0,38.3,31.3,21.7,0000.0,0006.33,0003.14,0002.38
2022-07-03 05:27:00,,0826.6,5.01,0.00,29.5,27.8,00.0,38.3,31.3,21.8,0000.0,0005.99,0003.13,0002.39
2022-07-03 05:28:00,,0826.6,5.00,0.00,29.5,27.9,00.0,38.3,31.3,22.0,0000.0,0006.06,0003.12,0002.39
2022-07-03 05:29:00,,0826.5,5.00,0.00,29.5,28.0,00.0,38.3,31.4,21.5,0000.0,0006.33,0003.14,0002.39
2022-07-03 05:30:00,,0826.5,4.99,0.00,29.5,28.1,00.0,38.3,31.4,21.5,0000.0,0006.97,0003.18,0002.40
2022-07-03 05:31:00,,0826.5,5.00,0.00,29.5,28.2,00.0,38.3,31.4,21.5,0000.0,0007.33,0003.17,0002.41
2022-07-03 05:32:00,,0826.5,5.00,0.00,29.5,28.3,00.0,38.3,31.4,21.6,0000.0,0007.44,0003.16,0002.41
2022-07-03 05:33:00,,0826.5,5.00,0.00,29.6,28.4,00.0,38.3,31.5,21.6,0000.0,0007.92,0003.15,0002.42
2022-07-03 05:34:00,,0826.5,5.00,0.00,29.6,28.5,00.0,38.3,31.5,21.5,0000.0,0008.16,0003.18,0002.43
2022-07-03 05:35:00,,0826.5,5.00,0.00,29.6,28.5,00.0,38.3,31.6,21.7,0000.0,0008.35,0003.16,0002.43
2022-07-03 05:36:00,,0826.5,5.00,0.00,29.6,28.6,00.0,38.3,31.6,21.7,0000.0,0008.29,0003.17,0002.44
2022-07-03 05:37:00,,0826.5,4.99,0.00,29.7,28.6,00.0,38.4,31.6,21.7,0000.0,0007.98,0003.21,0002.44
2022-07-03 05:38:00,,0826.5,5.00,0.00,29.7,28.7,00.0,38.4,31.7,21.8,0000.0,0007.85,0003.23,0002.44
2022-07-03 05:39:00,,0826.5,4.99,0.00,29.7,28.7,00.0,38.4,31.7,21.5,0000.0,0007.91,0003.26,0002.44
2022-07-03 05:40:00,,0826.5,5.00,0.00,29.7,28.3,00.0,38.4,31.6,21.5,0000.0,0007.84,0003.26,0002.45
2022-07-03 05:41:00,,0826.5,5.00,0.00,29.7,27.6,00.0,38.3,31.5,21.7,0000.0,0007.52,0003.24,0002.45
2022-07-03 05:42:00,,0826.4,5.00,0.00,29.6,27.4,00.0,38.3,31.4,21.5,0000.0,0007.20,0003.22,0002.45
2022-07-03 05:43:00,,0826.5,5.00,0.00,29.6,27.4,00.0,38.3,31.3,21.9,0000.0,0007.27,0003.24,0002.46
2022-07-03 05:44:00,,0826.5,5.00,0.00,29.5,27.5,00.0,38.3,31.3,21.7,0000.0,0006.47,0003.22,0002.46
2022-07-03 05:45:00,,0826.5,5.00,0.00,29.5,27.6,00.0,38.3,31.3,21.7,0000.0,0006.25,0003.22,0002.46
2022-07-03 05:46:00,,0826.5,4.99,0.00,29.5,27.8,00.0,38.3,31.3,21.7,0000.0,0006.56,0003.23,0002.46
2022-07-03 05:47:00,,0826.5,5.00,0.00,29.5,27.9,00.0,38.3,31.4,21.8,0000.0,0006.56,0003.23,0002.45
2022-07-03 05:48:00,,0826.5,5.00,0.00,29.5,28.0,00.0,38.3,31.4,21.7,0000.0,0006.47,0003.19,0002.43
2022-07-03 05:49:00,,0826.5,5.00,0.00,29.5,28.1,00.0,38.3,31.4,21.7,0000.0,0006.32,0003.16,0002.42
2022-07-03 05:50:00,,0826.5,5.00,0.00,29.5,28.2,00.0,38.3,31.4,21.6,0000.0,0006.62,0003.17,0002.43
2022-07-03 05:51:00,,0826.4,4.99,0.00,29.6,28.3,00.0,38.3,31.5,21.6,0000.0,0007.13,0003.19,0002.45
2022-07-03 05:52:00,,0826.4,4.99,0.00,29.6,28.4,00.0,38.3,31.5,21.5,0000.0,0007.19,0003.19,0002.45
2022-07-03 05:53:00,,0826.4,5.00,0.00,29.6,28.5,00.0,38.3,31.5,21.4,0000.0,0007.18,0003.19,0002.44
2022-07-03 05:54:00,,0826.5,5.01,0.00,29.6,28.6,00.0,38.4,31.6,21.4,0000.0,0007.08,0003.19,0002.43
2022-07-03 05:55:00,,0826.5,5.00,0.00,29.7,28.6,00.0,38.4,31.6,21.2,0000.0,0007.15,0003.22,0002.45
2022-07-03 05:56:00,,0826.5,5.00,0.00,29.7,28.7,00.0,38.4,31.7,21.4,0000.0,0007.20,0003.24,0002.47
2022-07-03 05:57:00,,0826.5,4.98,0.00,29.7,28.7,00.0,38.4,31.7,21.1,0000.0,0006.46,0003.25,0002.47
2022-07-03 05:58:00,,0826.5,5.00,0.00,29.7,28.8,00.0,38.4,31.7,21.0,0000.0,0006.14,0003.24,0002.49
2022-07-03 05:59:00,,0826.5,5.00,0.00,29.8,28.5,00.0,38.4,31.7,21.0,0000.0,0006.20,0003.25,0002.50
